Main page
METAR-TAF:

METAR-TAF

Airports :

Oil platform

Goeree Le, Netherlands

latitude: 51-55-33N, longitude: 3-40-12E, elevation: 19 m

Current weather observation

The report was made 26 minutes ago, at 05:55 UTC
Wind 23 kt from the Southwest
Temperature 16°C
Humidity 100%
Pressure 1014 hPa
Visibility: 5000 m
light drizzle

METAR: EHSC 190555Z AUTO 22023KT 5000 -DZ ///////// 16/16 Q1014 W16/H9

Time: 08:21 (06:21 UTC)


TAF: missing

Weather observations and forecasts of more than 4000 airports (METAR and TAF reports).

The available stations are represented by yellow and red dots on the map.

Hover mouse over dot to see the name of the station.

Then click to see weather observations and forecasts.

To change the map : click on the green buttons with a black cross to zoom in, on the green button with a dash to zoom out, or on the green arrows for adjacent maps.


METAR-TAF: